• In Moldova, Republic
  • List of Countries
  • For 7 days
  • Water Temperature
  • Satellite Maps
  • Weather Map
  • Weather Widgets
  • user-avatar
    Login

    Hourly Weather Berat

    Today, 25 February, Saturday

    Time Temperature Precipitation Wind Pressure Humidity
    00:00 +9°C° 0 mm 5 mps 744 mmHg 89%
    01:00 +10°C° 0 mm 4 mps 744 mmHg 90%
    02:00 +10°C° 0.1 mm 4 mps 744 mmHg 89%
    03:00 +10°C° 0.1 mm 4 mps 744 mmHg 89%
    04:00 +10°C° 0.1 mm 4 mps 744 mmHg 89%
    05:00 +10°C° 0.9 mm 4 mps 744 mmHg 89%
    06:00 +10°C° 0.9 mm 4 mps 744 mmHg 89%
    07:00 +10°C° 0 mm 4 mps 744 mmHg 87%
    08:00 +11°C° 0.7 mm 4 mps 744 mmHg 86%
    09:00 +11°C° 0.7 mm 4 mps 744 mmHg 84%
    10:00 +12°C° 0.7 mm 4 mps 744 mmHg 83%
    11:00 +13°C° 0.3 mm 4 mps 745 mmHg 79%
    12:00 +14°C° 0.3 mm 3 mps 745 mmHg 76%
    13:00 +14°C° 0 mm 3 mps 745 mmHg 77%
    14:00 +15°C° 0.2 mm 2 mps 745 mmHg 78%
    15:00 +15°C° 0.2 mm 2 mps 745 mmHg 80%
    16:00 +15°C° 0.2 mm 2 mps 745 mmHg 81%
    17:00 +14°C° 0 mm 2 mps 745 mmHg 84%
    18:00 +13°C° 0 mm 2 mps 745 mmHg 86%
    19:00 +12°C° 0 mm 2 mps 746 mmHg 88%
    20:00 +10°C° 0 mm 2 mps 746 mmHg 88%
    21:00 +10°C° 0 mm 2 mps 746 mmHg 88%
    22:00 +10°C° 0 mm 2 mps 747 mmHg 88%
    23:00 +9°C° 0 mm 2 mps 747 mmHg 88%

    Tomorrow, 26 February, Sunday

    Time Temperature Precipitation Wind Pressure Humidity
    00:00 +9°C° 0 mm 2 mps 747 mmHg 88%
    01:00 +9°C° 0 mm 3 mps 747 mmHg 87%
    02:00 +9°C° 0.1 mm 3 mps 747 mmHg 87%
    03:00 +9°C° 0.1 mm 2 mps 747 mmHg 87%
    04:00 +9°C° 0.1 mm 2 mps 747 mmHg 87%
    05:00 +9°C° 0.1 mm 2 mps 747 mmHg 87%
    06:00 +9°C° 0.1 mm 3 mps 747 mmHg 86%
    07:00 +9°C° 0.1 mm 3 mps 747 mmHg 86%
    08:00 +12°C° 0 mm 2 mps 747 mmHg 81%
    09:00 +14°C° 0 mm 2 mps 747 mmHg 77%
    10:00 +15°C° 0 mm 2 mps 747 mmHg 72%
    11:00 +16°C° 0 mm 2 mps 747 mmHg 68%
    12:00 +17°C° 0 mm 2 mps 747 mmHg 63%
    13:00 +19°C° 0 mm 1 mps 747 mmHg 58%
    14:00 +18°C° 0 mm 1 mps 747 mmHg 63%
    15:00 +16°C° 0 mm 1 mps 746 mmHg 68%
    16:00 +16°C° 0 mm 1 mps 746 mmHg 73%
    17:00 +15°C° 0.1 mm 1 mps 746 mmHg 77%
    18:00 +14°C° 0.1 mm 1 mps 746 mmHg 82%
    19:00 +13°C° 0.1 mm 1 mps 746 mmHg 86%
    20:00 +12°C° 0.1 mm 1 mps 746 mmHg 87%
    21:00 +12°C° 0.1 mm 1 mps 746 mmHg 88%
    22:00 +12°C° 0.1 mm 1 mps 746 mmHg 90%
    23:00 +11°C° 0 mm 1 mps 746 mmHg 90%

    Day after tomorrow, 27 February, Monday

    Time Temperature Precipitation Wind Pressure Humidity
    00:00 +11°C° 0 mm 1 mps 746 mmHg 90%
    01:00 +11°C° 0 mm 1 mps 746 mmHg 90%
    02:00 +11°C° 0 mm 1 mps 746 mmHg 90%
    03:00 +10°C° 0 mm 1 mps 746 mmHg 90%
    04:00 +9°C° 0 mm 2 mps 746 mmHg 89%
    05:00 +10°C° 0 mm 1 mps 746 mmHg 88%
    06:00 +10°C° 0 mm 1 mps 746 mmHg 88%
    07:00 +10°C° 0 mm 1 mps 746 mmHg 87%
    08:00 +12°C° 0 mm 1 mps 746 mmHg 79%
    09:00 +14°C° 0 mm 1 mps 746 mmHg 71%
    10:00 +18°C° 0 mm 1 mps 746 mmHg 63%
    11:00 +18°C° 0 mm 1 mps 746 mmHg 62%
    12:00 +19°C° 0 mm 1 mps 745 mmHg 60%
    13:00 +19°C° 0 mm 1 mps 745 mmHg 58%
    14:00 +19°C° 0 mm 1 mps 745 mmHg 61%
    15:00 +18°C° 0 mm 1 mps 745 mmHg 65%
    16:00 +16°C° 0 mm 1 mps 744 mmHg 68%
    17:00 +15°C° 0 mm 1 mps 745 mmHg 75%
    18:00 +13°C° 0 mm 1 mps 745 mmHg 82%
    19:00 +10°C° 0 mm 0 mps 745 mmHg 89%
    20:00 +10°C° 0 mm 0 mps 745 mmHg 89%
    21:00 +9°C° 0 mm 0 mps 745 mmHg 90%
    22:00 +9°C° 0 mm 0 mps 746 mmHg 91%
    23:00 +10°C° 0 mm 1 mps 745 mmHg 91%

    28 February, Tuesday

    Time Temperature Precipitation Wind Pressure Humidity
    00:00 +9°C° 0 mm 1 mps 745 mmHg 91%
    01:00 +9°C° 0 mm 1 mps 745 mmHg 92%
    02:00 +9°C° 0 mm 1 mps 745 mmHg 92%
    03:00 +9°C° 0 mm 1 mps 745 mmHg 92%
    04:00 +8°C° 0 mm 1 mps 744 mmHg 92%
    05:00 +9°C° 0 mm 1 mps 745 mmHg 91%
    06:00 +9°C° 0 mm 1 mps 745 mmHg 91%
    07:00 +9°C° 0 mm 1 mps 745 mmHg 90%
    08:00 +12°C° 0 mm 1 mps 745 mmHg 81%
    09:00 +14°C° 0 mm 1 mps 745 mmHg 72%
    10:00 +18°C° 0 mm 1 mps 745 mmHg 63%
    11:00 +17°C° 0 mm 2 mps 745 mmHg 61%
    12:00 +18°C° 0 mm 2 mps 744 mmHg 59%
    13:00 +18°C° 0 mm 3 mps 744 mmHg 58%
    14:00 +18°C° 0 mm 3 mps 744 mmHg 61%
    15:00 +17°C° 0 mm 3 mps 744 mmHg 65%
    16:00 +17°C° 0 mm 3 mps 743 mmHg 68%
    17:00 +14°C° 0 mm 3 mps 743 mmHg 76%
    18:00 +12°C° 0 mm 3 mps 743 mmHg 84%
    19:00 +11°C° 0 mm 3 mps 744 mmHg 92%
    20:00 +11°C° 0 mm 3 mps 744 mmHg 93%
    21:00 +10°C° 0 mm 3 mps 744 mmHg 94%
    22:00 +10°C° 0 mm 3 mps 744 mmHg 94%
    23:00 +10°C° 0 mm 3 mps 744 mmHg 94%

    1 March, Wednesday

    Time Temperature Precipitation Wind Pressure Humidity
    00:00 +10°C° 0 mm 3 mps 743 mmHg 94%
    01:00 +10°C° 0 mm 3 mps 743 mmHg 94%
    02:00 +10°C° 0 mm 3 mps 743 mmHg 94%
    03:00 +10°C° 0 mm 3 mps 743 mmHg 93%
    04:00 +9°C° 0 mm 3 mps 743 mmHg 93%
    05:00 +10°C° 0 mm 3 mps 743 mmHg 93%
    06:00 +10°C° 0 mm 3 mps 743 mmHg 92%
    07:00 +10°C° 0 mm 3 mps 743 mmHg 92%
    08:00 +11°C° 0.1 mm 4 mps 743 mmHg 86%
    09:00 +13°C° 0.1 mm 4 mps 743 mmHg 80%
    10:00 +14°C° 0.1 mm 4 mps 742 mmHg 74%
    11:00 +14°C° 0.5 mm 5 mps 742 mmHg 74%
    12:00 +14°C° 0.5 mm 5 mps 742 mmHg 74%
    13:00 +14°C° 0.5 mm 6 mps 741 mmHg 74%
    14:00 +13°C° 0.6 mm 5 mps 742 mmHg 75%
    15:00 +13°C° 0.6 mm 5 mps 742 mmHg 77%
    16:00 +12°C° 0.6 mm 4 mps 742 mmHg 79%
    17:00 +11°C° 0 mm 4 mps 743 mmHg 81%
    18:00 +9°C° 0 mm 3 mps 744 mmHg 83%
    19:00 +8°C° 0 mm 2 mps 744 mmHg 86%
    20:00 +7°C° 0 mm 2 mps 745 mmHg 86%
    21:00 +7°C° 0 mm 2 mps 745 mmHg 86%
    22:00 +6°C° 0 mm 2 mps 746 mmHg 86%
    23:00 +6°C° 0 mm 2 mps 746 mmHg 86%

    2 March, Thursday

    Time Temperature Precipitation Wind Pressure Humidity
    00:00 +7°C° 0 mm 1 mps 746 mmHg 87%
    01:00 +7°C° 0 mm 1 mps 746 mmHg 87%
    02:00 +7°C° 0 mm 1 mps 746 mmHg 87%
    03:00 +6°C° 0 mm 1 mps 746 mmHg 87%
    04:00 +6°C° 0 mm 1 mps 746 mmHg 87%
    05:00 +7°C° 0 mm 1 mps 746 mmHg 84%
    06:00 +7°C° 0 mm 1 mps 746 mmHg 82%
    07:00 +8°C° 0 mm 1 mps 747 mmHg 79%
    08:00 +10°C° 0 mm 1 mps 747 mmHg 68%
    09:00 +12°C° 0 mm 1 mps 747 mmHg 58%
    10:00 +14°C° 0 mm 1 mps 747 mmHg 47%
    11:00 +15°C° 0 mm 1 mps 747 mmHg 43%
    12:00 +15°C° 0 mm 1 mps 747 mmHg 40%
    13:00 +16°C° 0 mm 2 mps 746 mmHg 36%
    14:00 +16°C° 0 mm 2 mps 746 mmHg 39%
    15:00 +15°C° 0 mm 2 mps 746 mmHg 43%
    16:00 +15°C° 0 mm 2 mps 746 mmHg 47%
    17:00 +13°C° 0 mm 2 mps 747 mmHg 53%
    18:00 +10°C° 0 mm 2 mps 747 mmHg 60%
    19:00 +8°C° 0 mm 1 mps 747 mmHg 67%
    20:00 +8°C° 0 mm 1 mps 747 mmHg 67%
    21:00 +8°C° 0 mm 1 mps 748 mmHg 67%
    22:00 +8°C° 0 mm 1 mps 748 mmHg 66%
    23:00 +8°C° 0 mm 1 mps 748 mmHg 65%
    Show more